Evansville, IN

12:31 AM CDT on August 30, 2016 (GMT -0500)
Evansville Regional

Weather History for KEVV - June, 2013

Change the Weather History Date:

Sunday, June 2, 2013

  Actual Average Record
Temperature  
Mean Temperature 68 °F 71 °F  
Max Temperature 75 °F 82 °F 97 °F (1951)
Min Temperature 61 °F 60 °F 41 °F (1956)
Degree Days  
Heating Degree Days 0 1  
Month to date heating degree days 0 2  
Since 1 June heating degree days 0 2  
Since 1 July heating degree days 4530 4543  
Cooling Degree Days 3 7  
Month to date cooling degree days 9 13  
Year to date cooling degree days 180 148  
Since 1 June cooling degree days 9 13  
Growing Degree Days 18 (Base 50)    
Moisture  
Dew Point 60 °F    
Average Humidity 75    
Maximum Humidity 93    
Minimum Humidity 57    
Precipitation  
Precipitation T in 0.15 in 3.06 in (1904)
Month to date precipitation 1.25 0.31  
Year to date precipitation 23.80 20.55  
Snow  
Snow 0.00 in 0.00 in - ()
Month to date snowfall 0.0 0.0  
Since 1 June snowfall 0.0 0.0  
Since 1 July snowfall 12.3 11.8  
Snow Depth 0.00 in    
Sea Level Pressure  
Sea Level Pressure 29.93 in    
Wind  
Wind Speed 7 mph (WNW)    
Max Wind Speed 14 mph    
Max Gust Speed 21 mph    
Visibility 9 miles    
Events      
T = Trace of Precipitation, MM = Missing Value Source: NWS Daily Summary

Daily Weather History Graph

Daily Weather History Graph

Search for Another Location

Airport or City:

Trip Planner

Search our weather history database for the weather conditions in past years. The results will help you decide how hot, cold, wet, or windy it might be!

Date:

Astronomy

Jun. 02, 2013 Rise Set
Actual Time 5:28 AM CDT 8:07 PM CDT
Civil Twilight 4:57 AM CDT 8:38 PM CDT
Nautical Twilight 4:19 AM CDT 9:17 PM CDT
Astronomical Twilight 3:35 AM CDT 10:00 PM CDT
Moon 1:50 AM CDT (6/2) 2:42 PM CDT (6/2)
Length of Visible Light 15h 41m
Length of Day
14h 39m
Waning Crescent, 30% of the Moon is Illuminated
Jun 2
Waning Crescent
Jun 8
New
Jun 16
First Quarter
Jun 23
Full
Jun 29
Last Quarter

Hourly Weather History & Observations

Time (CDT) Temp. Dew Point Humidity Pressure Visibility Wind Dir Wind Speed Gust Speed Precip Events Conditions
12:13 AM 66.2 °F 62.6 °F 88% 29.90 in 10.0 mi SW 9.2 mph - N/A   Overcast
12:54 AM 66.9 °F 63.0 °F 87% 29.89 in 10.0 mi WSW 6.9 mph - N/A   Scattered Clouds
1:12 AM 66.2 °F 62.6 °F 88% 29.90 in 10.0 mi SW 6.9 mph - N/A   Mostly Cloudy
1:39 AM 66.2 °F 62.6 °F 88% 29.90 in 10.0 mi SW 6.9 mph - N/A   Scattered Clouds
1:54 AM 66.0 °F 63.0 °F 90% 29.89 in 10.0 mi SW 6.9 mph - N/A   Scattered Clouds
2:17 AM 66.2 °F 62.6 °F 88% 29.90 in 10.0 mi SW 6.9 mph - N/A   Mostly Cloudy
2:54 AM 64.9 °F 62.1 °F 90% 29.90 in 10.0 mi SW 6.9 mph - N/A   Overcast
3:36 AM 64.4 °F 62.6 °F 94% 29.90 in 9.0 mi SW 4.6 mph - N/A   Scattered Clouds
3:54 AM 64.0 °F 62.1 °F 93% 29.89 in 7.0 mi Calm Calm - N/A   Partly Cloudy
4:54 AM 63.0 °F 60.1 °F 90% 29.90 in 6.0 mi SSW 4.6 mph - N/A   Clear
5:16 AM 62.6 °F 60.8 °F 94% 29.91 in 1.8 mi SW 3.5 mph - N/A   Partly Cloudy
5:26 AM 62.6 °F 60.8 °F 94% 29.91 in 3.0 mi WSW 3.5 mph - N/A   Partly Cloudy
5:54 AM 62.1 °F 60.1 °F 93% 29.91 in 5.0 mi West 3.5 mph - N/A   Clear
6:54 AM 64.9 °F 61.0 °F 87% 29.91 in 10.0 mi WNW 3.5 mph - N/A   Clear
7:54 AM 68.0 °F 57.9 °F 70% 29.92 in 10.0 mi WNW 9.2 mph - N/A   Clear
8:54 AM 70.0 °F 59.0 °F 68% 29.93 in 10.0 mi NNW 6.9 mph - N/A   Mostly Cloudy
9:09 AM 69.8 °F 59.0 °F 68% 29.94 in 10.0 mi NW 8.1 mph - N/A   Scattered Clouds
9:17 AM 69.8 °F 59.0 °F 68% 29.94 in 10.0 mi WNW 10.4 mph - N/A   Mostly Cloudy
9:54 AM 72.0 °F 59.0 °F 64% 29.94 in 10.0 mi Variable 4.6 mph - N/A   Mostly Cloudy
10:34 AM 71.6 °F 59.0 °F 64% 29.95 in 10.0 mi WNW 5.8 mph - N/A   Mostly Cloudy
10:54 AM 72.0 °F 57.9 °F 61% 29.95 in 10.0 mi NW 9.2 mph 18.4 mph N/A   Mostly Cloudy
11:54 AM 73.9 °F 57.0 °F 55% 29.94 in 10.0 mi WNW 8.1 mph - N/A   Mostly Cloudy
12:54 PM 75.0 °F 59.0 °F 57% 29.95 in 10.0 mi WNW 8.1 mph - N/A   Overcast
1:54 PM 73.0 °F 59.0 °F 61% 29.95 in 10.0 mi NW 13.8 mph - N/A   Overcast
2:54 PM 73.0 °F 57.0 °F 57% 29.94 in 10.0 mi NW 8.1 mph - N/A   Overcast
3:54 PM 73.0 °F 59.0 °F 61% 29.95 in 10.0 mi WNW 4.6 mph - N/A   Overcast
4:54 PM 72.0 °F 57.9 °F 61% 29.94 in 10.0 mi WNW 10.4 mph - N/A   Overcast
5:54 PM 70.0 °F 57.0 °F 63% 29.93 in 10.0 mi NW 8.1 mph - N/A   Overcast
6:54 PM 69.1 °F 59.0 °F 70% 29.93 in 10.0 mi NW 6.9 mph - N/A   Overcast
7:54 PM 68.0 °F 57.9 °F 70% 29.95 in 10.0 mi NW 5.8 mph - N/A   Overcast
8:54 PM 66.9 °F 59.0 °F 76% 29.96 in 10.0 mi North 4.6 mph - N/A   Overcast
9:54 PM 66.0 °F 57.9 °F 75% 29.98 in 10.0 mi North 5.8 mph - 0.00 in   Overcast
10:54 PM 64.9 °F 57.0 °F 75% 29.99 in 10.0 mi NNW 6.9 mph - N/A   Overcast
11:54 PM 62.1 °F 55.9 °F 80% 29.99 in 10.0 mi NNW 5.8 mph - N/A   Clear